FM-5

Last updated on Sun Dec 07 2025 00:02:46 GMT+0000 (Coordinated Universal Time)

1 35493U 09034A 25340.40968294 -.00000194 00000+0 00000+0 0 9999 2 35493 0.0186 289.1399 0000736 285.1276 282.5229 1.00277404 44710
UTC large
Height (km)
Speed (km/s)
/
Latitude / Longitude
Inclination (degrees)
Orbital Period (minutes)
Azimuth
Elevation
Range (km)
Doppler Factor

Next 0 passes for location: London (51.5072 / 0.1276)

Sorry there are no passes over London.